Regional Weather Roundup
Issued by NWS

Home | Current Version | Previous Version | Text Only | Print | Product List | Glossary Off
Versions: 1 2 3 4 5 6 7 8 9 10 11 12 13 14 15 16 17 18 19 20 21 22 23 24 25 26 27 28 29 30 31 32 33 34 35 36 37 38 39 40 41 42 43 44 45 46 47 48 49 50

000
ASUS45 KBOI 281810
RWRID

IDAHO REGIONAL WEATHER ROUNDUP
NATIONAL WEATHER SERVICE BOISE ID
1200 PM MDT THU MAY 28 2015

NOTE: "FAIR" INDICATES FEW OR NO CLOUDS BELOW 12000 FEET
WITH NO SIGNIFICANT WEATHER AND/OR OBSTRUCTIONS TO VISIBILITY

IDZ012-014-281900-
SOUTHWEST IDAHO


CITY           SKY/WX    TMP DP  RH WIND       PRES   REMARKS
BOISE          SUNNY     69  45  41 NW6       30.10S
CALDWELL       SUNNY     70  45  40 N5        30.12S
MOUNTAIN HOME  SUNNY     71  38  30 N8G20     30.09F
$$

IDZ016-017-281900-
SOUTHCENTRAL IDAHO


CITY           SKY/WX    TMP DP  RH WIND       PRES   REMARKS
BURLEY         SUNNY     63  46  54 VRB3      30.12S
JEROME         SUNNY     62  46  55 SW6       30.14R
TWIN FALLS     SUNNY     66  42  41 W8        30.12R
$$

IDZ019>023-281900-
SOUTHEAST IDAHO


CITY           SKY/WX    TMP DP  RH WIND       PRES   REMARKS
IDAHO FALLS    PTSUNNY   56  44  64 CALM      30.15S
POCATELLO      MOSUNNY   60  49  66 W8        30.14S
REXBURG        LGT RAIN  54  44  69 CALM      30.14S
$$

IDZ006-010-011-018-031-032-281900-
CENTRAL IDAHO MOUNTAINS


CITY           SKY/WX    TMP DP  RH WIND       PRES   REMARKS
MCCALL         MOSUNNY   62  37  39 CALM      30.15R
HAILEY         MOSUNNY   59  45  58 SE7       30.16S
STANLEY          N/A     50  41  71 VRB7      30.22S
SALMON         PTSUNNY   59  46  63 N3        30.13S
CHALLIS        CLOUDY    60  40  47 N3        30.15S
$$

IDZ002-004-006-007-026-281900-
NORTHERN IDAHO


CITY           SKY/WX    TMP DP  RH WIND       PRES   REMARKS
LEWISTON       SUNNY     70  51  51 E9        30.10S
LOWELL           N/A     68  47  46 CALM      30.09F
COEUR D`ALENE  SUNNY     70  50  49 SW5       30.10S
MULLAN PASS    PTSUNNY   52  46  80 N5        30.21R
$$


USA.gov is the U.S. government's official web portal to all federal, state and local government web resources and services.